Weather History for Kokomo, IN

Change the Weather History Date:

Wednesday, February 20, 2013

  Actual Average (KGUS) Record (KGUS)
Temperature  
Mean Temperature 16 °F -  
Max Temperature 21 °F 37 °F 57 °F (1997)
Min Temperature 10 °F 24 °F 3 °F (2008)
Degree Days  
Heating Degree Days 50    
Moisture  
Dew Point 10 °F    
Average Humidity 72    
Maximum Humidity 80    
Minimum Humidity 63    
Precipitation  
Precipitation 0.00 in - - ()
Sea Level Pressure  
Sea Level Pressure 30.26 in    
Wind  
Wind Speed 14 mph (NW)    
Max Wind Speed 22 mph    
Max Gust Speed 28 mph    
Visibility 10 miles    
Events      
Averages and records for this station are not official NWS values.
T = Trace of Precipitation, MM = Missing Value Source: NWS Daily Summary

Daily Weather History Graph

Daily Weather History Graph

Search for Another Location

Airport:

Trip Planner

Search our weather history database for the weather conditions in past years. The results will help you decide how hot, cold, wet, or windy it might be!

Date:

Astronomy

Feb. 20, 2013 Rise Set
Actual Time 6:30 AM CST 5:25 PM CST
Civil Twilight 6:03 AM CST 5:53 PM CST
Nautical Twilight 5:31 AM CST 6:25 PM CST
Astronomical Twilight 4:59 AM CST 6:56 PM CST
Moon 12:45 PM CST (2/20) 2:51 AM CST (2/20)
Length of Visible Light 11h 50m
Length of Day
10h 54m
Waxing Gibbous, 76% of the Moon is Illuminated
Feb 20
Waxing Gibbous
Feb 25
Full
Mar 4
Last Quarter
Mar 11
New
Mar 19
First Quarter

Hourly Weather History & Observations

Time (CST) Temp. Windchill Dew Point Humidity Pressure Visibility Wind Dir Wind Speed Gust Speed Precip Events Conditions
12:15 AM 15.8 °F -0.6 °F 10.4 °F 79% 30.12 in 10.0 mi NW 18.4 mph 23.0 mph N/A   Overcast
12:35 AM 15.8 °F -1.1 °F 10.4 °F 79% 30.13 in 10.0 mi WNW 19.6 mph 25.3 mph N/A   Overcast
12:55 AM 15.8 °F -0.6 °F 8.6 °F 73% 30.14 in 10.0 mi WNW 18.4 mph 24.2 mph N/A   Mostly Cloudy
1:15 AM 15.8 °F 0.9 °F 8.6 °F 73% 30.15 in 10.0 mi WNW 15.0 mph 25.3 mph N/A   Mostly Cloudy
1:35 AM 15.8 °F -0.6 °F 8.6 °F 73% 30.15 in 10.0 mi WNW 18.4 mph 23.0 mph N/A   Overcast
1:55 AM 15.8 °F 0.3 °F 8.6 °F 73% 30.16 in 10.0 mi WNW 16.1 mph - N/A   Overcast
2:15 AM 15.8 °F -1.9 °F 8.6 °F 73% 30.16 in 10.0 mi WNW 21.9 mph 27.6 mph N/A   Overcast
2:35 AM 14.0 °F -2.5 °F 5.0 °F 67% 30.16 in 10.0 mi NW 17.3 mph - N/A   Overcast
2:55 AM 12.2 °F -4.3 °F 6.8 °F 79% 30.17 in 10.0 mi WNW 16.1 mph 21.9 mph N/A   Partly Cloudy
3:15 AM 12.2 °F -4.8 °F 6.8 °F 79% 30.18 in 10.0 mi WNW 17.3 mph - N/A   Clear
3:35 AM 12.2 °F -4.8 °F 5.0 °F 73% 30.18 in 10.0 mi WNW 17.3 mph - N/A   Clear
3:55 AM 12.2 °F -4.8 °F 5.0 °F 73% 30.19 in 10.0 mi WNW 17.3 mph - N/A   Partly Cloudy
4:15 AM 12.2 °F -4.3 °F 3.2 °F 67% 30.19 in 10.0 mi WNW 16.1 mph - N/A   Mostly Cloudy
4:35 AM 12.2 °F -3.7 °F 5.0 °F 73% 30.20 in 10.0 mi WNW 15.0 mph - N/A   Mostly Cloudy
4:55 AM 12.2 °F -3.1 °F 5.0 °F 73% 30.20 in 10.0 mi WNW 13.8 mph - N/A   Scattered Clouds
5:15 AM 10.4 °F -4.1 °F 3.2 °F 73% 30.21 in 10.0 mi WNW 11.5 mph 17.3 mph N/A   Clear
5:35 AM 10.4 °F -3.3 °F 3.2 °F 73% 30.22 in 10.0 mi NW 10.4 mph - N/A   Clear
5:55 AM 10.4 °F -6.0 °F 5.0 °F 79% 30.22 in 10.0 mi WNW 15.0 mph 19.6 mph N/A   Clear
6:15 AM 10.4 °F -4.8 °F 3.2 °F 73% 30.23 in 10.0 mi WNW 12.7 mph - N/A   Clear
6:55 AM 10.4 °F -2.4 °F 3.2 °F 73% 30.24 in 10.0 mi NW 9.2 mph - N/A   Clear
7:35 AM 10.4 °F -4.1 °F 3.2 °F 73% 30.26 in 10.0 mi WNW 11.5 mph - N/A   Clear
7:55 AM 12.2 °F -2.5 °F 5.0 °F 73% 30.26 in 10.0 mi West 12.7 mph - N/A   Clear
8:15 AM 12.2 °F -2.5 °F 6.8 °F 79% 30.26 in 10.0 mi West 12.7 mph - N/A   Clear
8:35 AM 12.2 °F -2.5 °F 6.8 °F 79% 30.26 in 10.0 mi West 12.7 mph - N/A   Clear
8:55 AM 14.0 °F -0.2 °F 6.8 °F 73% 30.27 in 10.0 mi West 12.7 mph - N/A   Clear
9:15 AM 15.8 °F 2.1 °F 6.8 °F 68% 30.27 in 10.0 mi West 12.7 mph - N/A   Clear
9:35 AM 15.8 °F 0.9 °F 8.6 °F 73% 30.27 in 10.0 mi West 15.0 mph - N/A   Clear
9:55 AM 17.6 °F 4.3 °F 8.6 °F 68% 30.27 in 10.0 mi WNW 12.7 mph - N/A   Clear
10:15 AM 17.6 °F 2.7 °F 10.4 °F 73% 30.28 in 10.0 mi West 16.1 mph - N/A   Scattered Clouds
10:35 AM 17.6 °F 3.7 °F 8.6 °F 68% 30.28 in 10.0 mi NW 13.8 mph 18.4 mph N/A   Scattered Clouds
10:55 AM 17.6 °F 3.7 °F 10.4 °F 73% 30.29 in 10.0 mi West 13.8 mph - N/A   Mostly Cloudy
11:15 AM 17.6 °F 3.7 °F 8.6 °F 68% 30.29 in 10.0 mi West 13.8 mph - N/A   Mostly Cloudy
11:35 AM 19.4 °F 6.0 °F 8.6 °F 63% 30.29 in 10.0 mi West 13.8 mph 19.6 mph N/A   Overcast
11:55 AM 19.4 °F 6.0 °F 10.4 °F 68% 30.28 in 10.0 mi WNW 13.8 mph - N/A   Mostly Cloudy
12:15 PM 19.4 °F 6.6 °F 10.4 °F 68% 30.28 in 10.0 mi West 12.7 mph 18.4 mph N/A   Overcast
12:35 PM 21.2 °F 8.3 °F 12.2 °F 68% 30.28 in 10.0 mi West 13.8 mph - N/A   Overcast
12:55 PM 21.2 °F 10.1 °F 12.2 °F 68% 30.28 in 10.0 mi WNW 10.4 mph 18.4 mph N/A   Overcast
1:15 PM 21.2 °F 8.9 °F 12.2 °F 68% 30.28 in 10.0 mi NW 12.7 mph - N/A   Overcast
1:35 PM 21.2 °F 7.8 °F 12.2 °F 68% 30.28 in 10.0 mi NW 15.0 mph 18.4 mph N/A   Overcast
1:55 PM 21.2 °F 6.8 °F 14.0 °F 74% 30.28 in 10.0 mi NW 17.3 mph - N/A   Overcast
2:15 PM 21.2 °F 8.9 °F 12.2 °F 68% 30.28 in 10.0 mi WNW 12.7 mph - N/A   Overcast
2:35 PM 21.2 °F 9.5 °F 12.2 °F 68% 30.28 in 10.0 mi NW 11.5 mph - N/A   Overcast
2:55 PM 21.2 °F 7.8 °F 12.2 °F 68% 30.28 in 10.0 mi WNW 15.0 mph 18.4 mph N/A   Overcast
3:15 PM 21.2 °F 9.5 °F 12.2 °F 68% 30.28 in 10.0 mi NW 11.5 mph - N/A   Overcast
3:35 PM 21.2 °F 8.3 °F 14.0 °F 74% 30.28 in 10.0 mi NW 13.8 mph - N/A   Overcast
3:55 PM 21.2 °F 9.5 °F 12.2 °F 68% 30.28 in 10.0 mi NW 11.5 mph 16.1 mph N/A   Overcast
4:15 PM 21.2 °F 9.5 °F 12.2 °F 68% 30.27 in 10.0 mi NW 11.5 mph 16.1 mph N/A   Overcast
4:35 PM 21.2 °F 10.9 °F 12.2 °F 68% 30.28 in 10.0 mi NW 9.2 mph - N/A   Overcast
4:55 PM 21.2 °F 10.1 °F 12.2 °F 68% 30.29 in 10.0 mi North 10.4 mph - N/A   Overcast
5:15 PM 21.2 °F 10.9 °F 14.0 °F 74% 30.30 in 10.0 mi North 9.2 mph - N/A   Overcast
5:35 PM 21.2 °F 12.6 °F 12.2 °F 68% 30.30 in 10.0 mi NNW 6.9 mph - N/A   Overcast
5:55 PM 21.2 °F 11.7 °F 12.2 °F 68% 30.30 in 10.0 mi North 8.1 mph - N/A   Overcast
6:15 PM 21.2 °F 12.6 °F 12.2 °F 68% 30.30 in 10.0 mi North 6.9 mph - N/A   Overcast
6:35 PM 21.2 °F 12.6 °F 12.2 °F 68% 30.31 in 10.0 mi North 6.9 mph - N/A   Overcast
6:55 PM 21.2 °F 12.6 °F 12.2 °F 68% 30.31 in 10.0 mi NNE 6.9 mph - N/A   Mostly Cloudy
7:15 PM 19.4 °F 11.5 °F 14.0 °F 80% 30.31 in 10.0 mi NNE 5.8 mph - N/A   Clear
7:35 PM 19.4 °F 11.5 °F 12.2 °F 74% 30.31 in 10.0 mi NNE 5.8 mph - N/A   Clear
7:55 PM 19.4 °F 10.4 °F 12.2 °F 74% 30.31 in 10.0 mi North 6.9 mph - N/A   Clear
8:15 PM 19.4 °F 10.4 °F 12.2 °F 74% 30.31 in 10.0 mi North 6.9 mph - N/A   Clear
8:35 PM 19.4 °F 11.5 °F 12.2 °F 74% 30.30 in 10.0 mi North 5.8 mph - N/A   Clear
8:55 PM 19.4 °F 12.8 °F 12.2 °F 74% 30.31 in 10.0 mi NNW 4.6 mph - N/A   Clear
9:15 PM 19.4 °F 10.4 °F 12.2 °F 74% 30.29 in 10.0 mi North 6.9 mph - N/A   Clear
9:35 PM 19.4 °F 10.4 °F 12.2 °F 74% 30.29 in 10.0 mi North 6.9 mph - N/A   Clear
9:55 PM 19.4 °F 11.5 °F 12.2 °F 74% 30.30 in 10.0 mi NNW 5.8 mph - N/A   Mostly Cloudy
10:35 PM 19.4 °F 12.8 °F 14.0 °F 80% 30.30 in 10.0 mi NNW 4.6 mph - N/A   Overcast
10:55 PM 21.2 °F 13.6 °F 14.0 °F 74% 30.30 in 10.0 mi NNW 5.8 mph - N/A   Overcast
11:15 PM 21.2 °F 12.6 °F 15.8 °F 80% 30.30 in 10.0 mi North 6.9 mph - N/A   Overcast
11:35 PM 21.2 °F 10.9 °F 15.8 °F 80% 30.30 in 10.0 mi North 9.2 mph - N/A   Overcast
11:55 PM 21.2 °F 10.9 °F 15.8 °F 80% 30.30 in 10.0 mi North 9.2 mph - N/A   Overcast